STARLINK-32431 (61256 NORAD) Tracking and Keplerian Element Data

This shows tracking and keplerian element data for the satellite.

Feedback or suggestion? Click here.




ElementValue
Catalog61256
NameSTARLINK-32431
Epoch Orbit402
Epoch Day286.91668981
Epoch Year2024
RAAN65.2096
Inclination53.1586
Eccentricity0.0001418
Argument of Perigee45.3821
Mean Anonmoly329.8627
Mean Motion15.73704969
Decay Rate0.00065008
L11 61256U 24175P 24286.91668981 .00065008 00000+0 45408-3 0 9991
L22 61256 53.1586 65.2096 0001418 45.3821 329.8627 15.73704969 4029



Live tracking and technical data element details for STARLINK-32431 (NORAD 61256). STARLINK-32431 can be tracked NOW for your location showing map with azimuth and elevation plus other details from your city location.







IsCatalogInMostPopularTable: catalog: 61256, numindb: 24
Update: records affected: 1



GetName: 61256 STARLINK-32431

Hit Count: updated at: Wed, 04 Dec 2024 10:07:21 GMT